Regional Weather Roundup
Issued by NWS Boston, MA

Home | Current Version | Previous Version | Text Only | Print | Product List | Glossary On
Versions: 1 2 3 4 5 6 7 8 9 10 11 12 13 14 15 16 17 18 19 20 21 22 23 24 25 26 27 28
000
ASUS41 KBOX 181910
RWRBOX

REGIONAL WEATHER ROUNDUP
NATIONAL WEATHER SERVICE TAUNTON MA
200 PM EST WED JAN 18 2017

NOTE:  "FAIR" INDICATES FEW OR NO CLOUDS BELOW 12,000 FEET WITH NO
SIGNIFICANT WEATHER AND/OR OBSTRUCTIONS TO VISIBILITY.

MAZALL-182000-
EASTERN MASSACHUSETTS

CITY           SKY/WX    TMP DP  RH WIND       PRES   REMARKS
BOSTON         LGT RAIN  39  38  96 NE15      29.97R FOG     WCI  31
BEVERLY        LGT RAIN  39  38  96 NE6       29.97R FOG
LAWRENCE       LGT SNOW  33  31  92 N12       30.00R FOG     WCI  24
BEDFORD        MIX PCPN  33  30  88 N7        29.97R FOG     WCI  27
BLUE HILL        N/A     36  36 100 E14G26    29.92R WCI  27
NORWOOD        LGT RAIN  41  39  93 NE8       29.96R FOG
MARSHFIELD     CLOUDY    41  39  93 NE13      29.94R FOG
PLYMOUTH       CLOUDY    40  38  93 NE12      29.92R FOG
TAUNTON        CLOUDY    41  39  93 NE7       29.93R FOG
NEW BEDFORD    CLOUDY    43  40  89 NE14      29.90R FOG
$$

MAZALL-182000-
CAPE COD AND THE ISLANDS

CITY           SKY/WX    TMP DP  RH WIND       PRES   REMARKS
FALMOUTH       LGT RAIN N/A N/A N/A MISG      30.04S VSB 1
HYANNIS        LGT RAIN  41  39  93 NE10      29.88R FOG
CHATHAM        LGT RAIN  42  40  92 E16       29.90R FOG
PROVINCETOWN   CLOUDY    40  39  97 E14       29.94R FOG
NANTUCKET      LGT RAIN  43  40  89 E17G24    29.85R FOG
MARTHAS VNYRD  LGT RAIN  42  40  92 NE16      29.87R FOG
$$

MAZALL-182000-
CENTRAL AND WESTERN MASSACHUSETTS

CITY           SKY/WX    TMP DP  RH WIND       PRES   REMARKS
WORCESTER      CLOUDY    31  29  92 N9        29.92R FOG     WCI  23
FITCHBURG      CLOUDY    34  31  88 N3        29.98S
ORANGE         CLOUDY    33  32  96 N7        29.96S WCI  27
SPRINGFIELD    CLOUDY    36  34  94 NW8       29.95R WCI  29
WESTFIELD      CLOUDY    36  32  85 N9        29.96R WCI  29
NORTH ADAMS    CLOUDY    36  31  82 E3        29.95R HAZE
PITTSFIELD     CLOUDY    34  31  88 N3        29.92
$$

RIZALL-182000-
RHODE ISLAND

CITY           SKY/WX    TMP DP  RH WIND       PRES   REMARKS
PROVIDENCE     LGT RAIN  41  39  93 N13       29.92R FOG
NEWPORT        CLOUDY    42  41  96 NE9       29.89R FOG
SMITHFIELD     LGT RAIN  39  38  96 NE12      29.92R FOG     WCI  32
WESTERLY       CLOUDY    43  38  82 NE9       29.91R
$$

CTZALL-182000-
CONNECTICUT

CITY           SKY/WX    TMP DP  RH WIND       PRES   REMARKS
BRADLEY INTL   DRIZZLE   37  36  96 N8        29.96R FOG     WCI  31
HARTFORD       CLOUDY    37  36  96 N9        29.95R FOG     WCI  30
BRIDGEPORT     CLOUDY    41  36  82 N12       29.93R
DANBURY        CLOUDY    38  35  89 N7        29.95R
GROTON         CLOUDY    42  39  89 N13       29.90R
NEW HAVEN      CLOUDY    39  36  89 N14       29.92R WCI  31
CHESTER          N/A     39  37  93 N8        29.91R FOG
MERIDEN        CLOUDY    39  35  86 N8        29.94R
WILLIMANTIC    CLOUDY    40  37  89 N6        29.94R
OXFORD         CLOUDY    36  32  87 N12       29.93R FOG     WCI  27
$$

MEZ002-015-021-024-NHZ003-005-008-011-012-014-VTZ005-008-182000-
NORTHERN NEW ENGLAND

CITY           SKY/WX    TMP DP  RH WIND       PRES   REMARKS
PORTLAND ME    SNOW      29  26  89 N10       30.06R VSB 1/2 WCI  20
BANGOR ME      CLOUDY    26  17  68 NE6       30.12S WCI  19
CONCORD NH     CLOUDY    32  28  85 N8        30.01R FOG     WCI  25
MANCHESTER NH  NOT AVBL
NASHUA NH      NOT AVBL
PORTSMOUTH NH  LGT SNOW  31  29  92 N8        30.00R VSB 1   WCI  23
JAFFREY NH     NOT AVBL
KEENE NH       NOT AVBL
BURLINGTON VT  CLOUDY    37  31  78 S10       29.93R WCI  30
MT. WASHINGTON SNOW      14  14 100 SE16        N/A  VSB 1/8 WCI  -2
$$

NYZ052-076-182000-
EASTERN NEW YORK

CITY           SKY/WX    TMP DP  RH WIND       PRES   REMARKS
ALBANY         DRZL/FOG  36  34  92 CALM      29.97S VSB 1
NEW YORK CITY  CLOUDY    44  38  79 N8        29.94R
$$

ANZALL-182000-
MARINE OBSERVATIONS

STATION/POSITION TIME  TEMP    WIND        PRES    VSBY  WAVE
                       AIR SEA DIR/SP/G                  HT/PER
                 (UTC) (F)     (DEG/KT/KT) (MB)    (MI)  (FT/S)
BOSTON BUOY      1850   40 45   70/ 17/ 21 1013.2R         9/ 8
BUZZARDS BAY     1800   40      30/ 17/ 19 1011.7S
NANTUCKET SOUND  1850   42 41   70/ 19/ 25 1010.9R         3/ 5
MASS BAY-STELLWA 1804   40 45   70/ 19/ 21 1013.9S  1 7/8  9/ 7
ISLE OF SHOALS   1800   38      80/ 21/ 22 1014.7S
S OF BLOCK IS    1855      46                N/A           6/ 7
$$

......................KEY.........................
  SKY/WX - SKY CONDITION/PRESENT WEATHER
  TMP    - TEMPERATURE IN FAHRENHEIT
  DWPT   - DEWPOINT IN FAHRENHEIT
  RH     - RELATIVE HUMIDITY IN PERCENT
  WIND   - DIRECTION AND SPEED IN MPH
  PRES   - MEAN SEA LEVEL PRESSURE IN INCHES OF HG
  WCI    - WIND CHILL INDEX
  VSB    - VISIBILITY IN MILES
  HX     - HEAT INDEX
  TC     - TEMPERATURE IN CELSIUS
  VRB    - VARIABLE WIND DIRECTION
  N/A    - NOT AVAILABLE




USA.gov is the U.S. government's official web portal to all federal, state and local government web resources and services.